www.pogodaiklimat.ru

Погода и климат >> Архив погоды >> Россия >> Самарская область >> Самара


АРХИВ ПОГОДЫ в Самаре

Время (UTC), дата Ветер
(напр.,м/с)
 
Видим.   Явления Облачность Т
(С)
Тd
(С)
f
(%)
Тe
(С)
Тes
(С)
Комфортность P
(гПа)
Po
(гПа)
Тmin
(С)
Tmax
(С)
R
(мм)
R24
(мм)
S
(см)
09 19.03 штиль 0 10 км ясно +7.2 -8.0 33 +7 +18 опасность
простуды
1028.1 1010.8
12 19.03 З 2 10 км 3/0
[Ci fib]
+6.3 -7.5 36 +5 +8 1028.1 1010.7
15 19.03 З 1 10 км ясно +3.1 -6.3 50 +2 +2 1028.5 1010.9 +8.1
18 19.03 ЮЗ 1 10 км ясно -0.8 -7.9 59 -2 -2 1028.9 1011.1
21 19.03 ЮЗ 1 10 км ясно -4.2 -7.7 77 -6 -6 1028.6 1010.6
00 20.03 штиль 0 10 км ясно -5.5 -8.1 82 -6 -6 1028.0 1009.9
03 20.03 штиль 0 10 км ясно -5.7 -8.0 84 -7 -6 1027.9 1009.7 -6.4 64
06 20.03 З 1 10 км ясно +0.6 -5.3 65 -1 +5 1027.3 1009.6
09 20.03 З 2 10 км ясно +5.9 -2.8 54 +4 +12 1026.1 1008.7
12 20.03 З 1 10 км ясно +6.7 -1.4 56 +6 +10 1025.2 1007.9
15 20.03 З 1 10 км ясно +3.9 -1.3 69 +3 +3 1024.6 1007.2 +7.2
18 20.03 З 1 10 км ясно +1.5 -2.5 75 -0 -0 1024.2 1006.6
21 20.03 З 1 10 км ясно -0.4 -3.1 82 -2 -2 1023.4 1005.7
00 21.03 З 1 10 км ясно -1.5 -3.6 86 -4 -4 1022.3 1004.6
03 21.03 З 1 10 км 8/0
[Ac trans]
-1.4 -3.4 86 -4 -3 1021.3 1003.5 -1.8 61
06 21.03 штиль 0 10 км 9/0
[Ac trans]
+3.2 -2.3 67 +3 +6 1020.6 1003.2
09 21.03 З 1 10 км 10/5 600 м
[Sc diur, vesp Ac trans]
+3.1 -2.2 68 +2 +4 1020.3 1002.9
12 21.03 штиль 0 10 км 10/8 600 м
[Sc diur, vesp Ac trans]
+3.6 -1.9 67 +3 +3 1019.0 1001.6
15 21.03 З 1 10 км 10/8 600 м
[Sc Ac trans]
+1.7 -2.0 76 0 0 1018.4 1000.9 +4.2
18 21.03 З 1 10 км 10/10 600 м
[Sc]
+0.9 -1.4 85 -1 -1 1018.6 1001.1
21 21.03 штиль 0 10 км слаб. снег 10/10 600 м
[Sc]
+0.2 -1.5 88 -1 -1 1017.7 1000.2
00 22.03 З 1 10 км слаб. снег 10/10 600 м
[Sc]
-0.2 -1.5 91 -2 -2 1017.2 999.6
03 22.03 З 2 2000 м дымка {снег} 10/10 200 м
[St]
-0.5 -1.6 92 -4 -4 1016.7 999.1 -0.5 0.5 59
06 22.03 штиль 0 500 м туман {снег} ?/? +0.7 +0.2 96 -1 -1 1016.6 999.1 -0.5
09 22.03 В 1 4000 м дымка {туман} 10/10 200 м
[St]
+1.3 -0.4 88 -1 -1 1015.7 998.3
12 22.03 В 2 4000 м слаб. дождь 10/10 300 м
[Frnb Ns]
+1.2 -0.6 88 -2 -2 1014.4 997.0
15 22.03 В 3 2000 м снег {дождь} 10/10 300 м
[Frnb Ns]
+0.2 -1.1 91 -5 -5 1012.9 995.5 +1.9 0.8
18 22.03 В 3 4000 м слаб. снег {дождь} 10/10 300 м
[Frnb Ns]
0.0 0.0 100 -5 -5 1012.5 995.0
21 22.03 В 3 4000 м снег 10/10 300 м
[Frnb Ns]
0.0 0.0 100 -5 -5 1011.2 993.8
00 23.03 В 3 4000 м слаб. снег 10/10 300 м
[Frnb Ns]
-0.3 -0.3 100 -5 -5 1010.9 993.4
03 23.03 Ю 1 10 км в посл. час снег 10/10 600 м
[Sc]
-0.3 -0.3 100 -3 -3 1012.4 994.9 -0.3 10 66
06 23.03 Ю 1 10 км 10/8 600 м
[Sc Ac trans]
+0.3 -1.1 90 -2 -1 1015.4 997.9 -0.4
09 23.03 ЮВ 2 10 км 9/4 600 м
[Sc Ci fib]
+1.8 -2.1 75 -1 +3 1017.3 999.9
12 23.03 В 1 10 км 6/3 600 м
[Sc Ci fib]
+3.2 -2.4 67 +2 +5 1018.4 1001.0
15 23.03 В 2 10 км 4/0
[Ac trans Ci fib]
+1.5 -1.9 78 -2 -2 1019.4 1001.9 +3.3
18 23.03 В 2 10 км 10/0
[Ci fib]
+0.3 -2.1 84 -3 -3 1020.8 1003.2
21 23.03 В 2 10 км 10/0
[Ac trans]
0.0 -2.4 84 -4 -4 1021.2 1003.6
00 24.03 В 2 10 км 10/0
[Ac trans Ci fib]
-0.8 -2.8 86 -5 -5 1021.1 1003.5
03 24.03 В 3 10 км 10/0
[Ac trans Ci fib]
-1.5 -3.2 88 -7 -6 1021.1 1003.4 -1.7 61
06 24.03 В 3 10 км 10/0
[Ac trans]
-0.3 -2.8 83 -5 -3 1020.7 1003.0
09 24.03 В 2 10 км 10/0
[Ac trans]
+1.1 -2.9 75 -2 +1 1019.2 1001.7
12 24.03 В 3 10 км 10/4 600 м
[Sc Ac trans]
+1.1 -2.4 77 -3 -2 1017.1 999.7
15 24.03 В 3 10 км 10/0
[Ac trans]
+0.8 -2.1 81 -4 -4 1014.3 996.8 +1.4
18 24.03 В 4 10 км 10/6 600 м
[Sc Ac trans]
+0.6 -2.3 81 -5 -5 1011.2 993.8
21 24.03 В 3 10 км 10/10 600 м
[Sc]
+1.0 -1.3 85 -3 -3 1006.0 988.7
00 25.03 В 3 10 км слаб. дождь 10/10 600 м
[Sc]
+0.7 -0.8 90 -4 -4 999.9 982.7
03 25.03 Ю 2 4000 м слаб. снег {дождь} 10/10 300 м
[Frnb Ns]
-0.2 -0.4 99 -4 -4 996.3 979.1 -0.2 6 61
06 25.03 ЮЗ 4-10
{10}
10 км {снег, дождь} 10/10 600 м
[Sc diur, vesp]
-0.1 -1.6 90 -6 -6 995.1 977.9 -0.3
09 25.03 ЮЗ 5-13
{14}
2000 м снег {метель} 10/10 300 м
[Frnb Ns]
-0.1 -1.5 90 -6 -6 997.2 980.0
12 25.03 ЮЗ 4-10
{13}
10 км слаб. снег {метель} 10/10 300 м
[Frnb Ns]
+0.8 -1.4 85 -4 -4 1000.4 983.2
15 25.03 ЮЗ 4-10
{11}
10 км слаб. снег {метель} 10/10 300 м
[Frnb Ns]
+0.2 -1.2 90 -5 -5 1003.3 986.0 +0.9 2
18 25.03 З 4
{10}
10 км слаб. снег {метель} 10/10 300 м
[Frnb Ns]
+0.6 -0.9 90 -5 -5 1005.9 988.6
21 25.03 З 5
{10}
10 км {снег} 8/8 600 м
[Sc]
+0.5 -2.1 83 -5 -5 1009.0 991.7
00 26.03 З 3
{10}
10 км {снег} 6/6 600 м
[Sc]
-0.7 -2.9 85 -6 -6 1011.5 994.0
03 26.03 З 2 10 км ясно -1.7 -3.9 85 -6 -5 1014.2 996.5 -1.7 0.4 64
06 26.03 ЮЗ 3 10 км 8/4 600 м
[Sc Ac trans]
+1.4 -4.0 67 -3 -1 1015.7 998.3

 

Местоположение метеостанции Самара (Самарская область, Россия): широта 53.25 долгота 50.22 высота над уровнем моря 139 м.

В архиве по умолчанию представлена погода в Самаре за последнюю неделю. Архивные данные за месяц целиком и за предыдущие месяцы, начиная с января 2011 года, Вы можете получить, выбрав интересующий диапазон дат из раскрывающегося списка и нажав кнопку "Ввод!".


*Определитесь, кто Вы:
робот инопланетянин человек

Внимание! Время в таблицах - всемирное. Для получения местного времени необходимо прибавить поправку, которая равна 4 ч.

Смотрите также архив погоды в соседних городах и на ближайших метеорологических станциях:

Погода в Самаре АМС (Самарская область, Россия) (7 км)
Погода в Самаре-Центр (Самарская область, Россия) (8 км)
Погода в Курумоче (Самарская область, Россия) (28 км)
Погода в Аглосе (Самарская область, Россия) (32 км)
Погода в Чапаевске (Самарская область, Россия) (43 км)
Погода в Красносамарском (Самарская область, Россия) (46 км)
Погода в Тольятти (дамба) (Самарская область, Россия) (55 км)
Погода в Безенчуке (Самарская область, Россия) (61 км)
Погода в Тольятти (Самарская область, Россия) (69 км)
Погода в Богатом (Самарская область, Россия) (73 км)

Пояснения к столбцам:

Ветер - указаны скорость ветра в м/с - средняя за 10 мин, порывы в срок и между сроками (в фигурных скобках) и направление, откуда дует ветер: С - северный, СВ - северо-восточный, В - восточный, ЮВ - юго-восточный, Ю - южный, ЮЗ - юго-западный, З - западный, СЗ - северо-западный.
Видимость - горизонтальная дальность видимости в метрах или километрах. При видимости от 1 до 10 км при отсутствии осадков обычно наблюдается дымка, при ухудшении видимости до 1 км и менее - туман. В сухую погоду видимость может ухудшаться дымом, пылью или мглою.
Явления - указаны атмосферные явления, наблюдавшиеся в срок или в последний час перед сроком; фигурными скобками обозначены явления, наблюдавшиеся между сроками (за 1-3 часа до срока); квадратными скобками обозначены град или гололедные отложения с указанием их диаметра в мм.
Облачность - указаны через наклонную черту общая и нижняя облачность в баллах и высота нижней границы облаков в метрах; квадратными скобками обозначены формы облаков: Ci - перистые, Cs - перисто-слоистые, Cc - перисто-кучевые, Ac - высококучевые, As - высокослоистые, Sc - слоисто-кучевые, Ns - слоисто-дождевые, Cu - кучевые, Cb - кучево-дождевые. Подробнее классификацию облаков см. в Атласе облаков (PDF).
T - Температура воздуха - температура, измеренная на высоте 2 м над землей.
Td - Температура точки росы - температура, при понижении до которой содержащийся в воздухе водяной пар достигнет насыщения.
f - Относительная влажность воздуха - влажноcть воздуха, измеренная на высоте 2 м над землей.
Te - Эффективная температура - температура, которую ощущает одетый по сезону человек в тени. Характеристика душности погоды. При расчете учитывается влияние влажности воздуха и скорости ветра на теплоощущения человека.
Tes - Эффективная температура на солнце - температура, которую ощущает человек, с поправкой на солнечный нагрев. Характеристика знойности погоды. Зависит от высоты солнца над горизонтом, облачности и скорости ветра. Ночью, в пасмурную погоду, а также при ветре 12 м/с и более поправка равна нулю.
P - Атмосферное давление - приведенное к уровню моря атмосферное давление.
Po - Атмосферное давление - измеренное на уровне метеостанции атмосферное давление.
Tmin - Минимальная температура - минимум температуры воздуха на высоте 2 м над землей.
Tmax - Максимальная температура - максимум температуры воздуха на высоте 2 м над землей.
R - Количество осадков - Количество выпавших осадков за период времени, мм. При наведении курсора мыши на число - период времени, за который выпало указанное количество осадков.
R24 - Количество осадков - Количество выпавших осадков за 24 часа, мм.
S - Снежный покров - Высота снежного покрова, см. При наведении курсора мыши на число - состояние снежного покрова и степень покрытия местности в баллах.